GW2492 Weather Reports


Display with metric or nautical units.
time (UTC)temp
F
wind
direction
speed
MPH
gust
MPH
rain 1hr
in
rain 24hr
in
rain mn
in
humidity
%
barometer
mb
20260901213111 96 93 5.0 11.0 0.00 0.00 0.00 34 1014.8
20260901211557 96 111 3.0 13.0 0.00 0.00 0.00 34 1015.1
20260901210058 97 150 7.0 11.0 0.00 0.00 0.00 35 1015.3
20260901204551 96 137 6.0 10.0 0.00 0.00 0.00 36 1015.3
20260901203113 95 172 5.0 14.0 0.00 0.00 0.00 37 1015.6
20260901201549 95 76 5.0 12.0 0.00 0.00 0.00 37 1016.0
20260901200054 94 103 2.0 6.0 0.00 0.00 0.00 39 1016.1
20260901194558 94 57 5.0 20.0 0.00 0.00 0.00 38 1016.2
20260901193125 96 99 3.0 10.0 0.00 0.00 0.00 37 1016.4
20260901191553 96 125 4.0 9.0 0.00 0.00 0.00 37 1016.7
20260901190106 94 104 1.0 11.0 0.00 0.00 0.00 38 1016.9
20260901184553 94 67 8.0 12.0 0.00 0.00 0.00 37 1017.1
20260901183054 92 193 3.0 15.0 0.00 0.00 0.00 42 1017.4
20260901181605 93 134 4.0 12.0 0.00 0.00 0.00 43 1017.7
20260901180057 93 116 3.0 15.0 0.00 0.00 0.00 43 1017.8
20260901174607 92 161 3.0 11.0 0.00 0.00 0.00 43 1018.0
20260901173056 90 161 5.0 12.0 0.00 0.00 0.00 44 1018.4
20260901171607 90 119 4.0 13.0 0.00 0.00 0.00 43 1018.5
20260901170105 89 185 11.0 17.0 0.00 0.00 0.00 44 1018.6
20260901164556 88 188 10.0 16.0 0.00 0.00 0.00 45 1018.7
20260901163056 88 188 7.0 14.0 0.00 0.00 0.00 46 1018.8
20260901161556 86 210 7.0 16.0 0.00 0.00 0.00 47 1018.9
20260901160059 86 210 6.0 10.0 0.00 0.00 0.00 47 1019.0
20260901154551 86 161 6.0 10.0 0.00 0.00 0.00 49 1019.0
20260901153101 85 217 7.0 11.0 0.00 0.00 0.00 49 1018.8
20260901151545 85 201 8.0 14.0 0.00 0.00 0.00 47 1018.6
20260901150104 85 169 10.0 14.0 0.00 0.00 0.00 47 1018.6
20260901144545 84 164 6.0 10.0 0.00 0.00 0.00 53 1018.6
20260901143112 83 175 5.0 9.0 0.00 0.00 0.00 56 1018.8
20260901141549 82 130 5.0 11.0 0.00 0.00 0.00 58 1018.7
20260901134618 80 165 7.0 10.0 0.00 0.00 0.00 63 1018.7
20260901133057 80 157 2.0 6.0 0.00 0.00 0.00 63 1018.7
20260901131548 79 90 0.0 3.0 0.00 0.00 0.00 65 1018.7
20260901130055 78 137 3.0 8.0 0.00 0.00 0.00 67 1018.6
20260901124554 78 140 4.0 7.0 0.00 0.00 0.00 66 1018.5
20260901123055 78 227 2.0 4.0 0.00 0.00 0.00 66 1018.3
20260901121605 78 164 3.0 10.0 0.00 0.00 0.00 66 1018.1
20260901120049 78 147 6.0 12.0 0.00 0.00 0.00 66 1017.8
20260901114602 79 158 5.0 8.0 0.00 0.00 0.00 65 1018.0
20260901113055 79 140 1.0 7.0 0.00 0.00 0.00 64 1018.0
20260901111556 79 158 6.0 10.0 0.00 0.00 0.00 64 1017.7
20260901110054 79 170 7.0 15.0 0.00 0.00 0.00 64 1017.5
20260901104550 79 168 11.0 16.0 0.00 0.00 0.00 64 1017.3
20260901103045 80 196 12.0 20.0 0.00 0.00 0.00 63 1017.1
20260901101555 80 172 14.0 22.0 0.00 0.00 0.00 62 1017.2
20260901100050 80 176 15.0 22.0 0.00 0.00 0.00 62 1016.9
20260901094547 80 173 12.0 19.0 0.00 0.00 0.00 62 1016.9
20260901093058 80 170 13.0 21.0 0.00 0.00 0.00 64 1016.8
20260901091555 80 172 13.0 18.0 0.00 0.00 0.00 64 1016.9
20260901090047 80 171 12.0 20.0 0.00 0.00 0.00 64 1016.8
20260901084544 81 155 16.0 22.0 0.00 0.00 0.00 62 1016.7
20260901083054 81 143 15.0 21.0 0.00 0.00 0.00 62 1016.8
20260901081550 81 146 12.0 18.0 0.00 0.00 0.00 62 1016.8
20260901080053 81 159 13.0 18.0 0.00 0.00 0.00 61 1016.8
20260901074606 81 146 12.0 19.0 0.00 0.00 0.00 60 1016.6
20260901073056 81 150 14.0 18.0 0.00 0.00 0.00 59 1016.7
20260901071550 81 153 12.0 17.0 0.00 0.00 0.00 58 1016.7
20260901070048 81 150 11.0 14.0 0.00 0.00 0.00 58 1016.7
20260901064552 81 144 9.0 15.0 0.00 0.00 0.00 58 1016.6
20260901063054 82 152 9.0 13.0 0.00 0.00 0.00 57 1016.5
20260901061550 82 136 7.0 11.0 0.00 0.00 0.00 57 1016.4
20260901060053 82 157 8.0 12.0 0.00 0.00 0.00 56 1016.4
20260901054546 83 139 8.0 11.0 0.00 0.00 0.00 55 1016.5
20260901053054 83 111 8.0 13.0 0.00 0.00 0.00 54 1016.6
20260901051600 84 140 9.0 13.0 0.00 0.00 0.00 53 1016.5
20260901050054 84 121 9.0 13.0 0.00 0.00 0.00 52 1016.4
20260901044552 85 136 9.0 13.0 0.00 0.00 0.00 52 1016.4
20260901043059 85 132 9.0 16.0 0.00 0.00 0.00 51 1016.4
20260901041553 86 155 10.0 15.0 0.00 0.00 0.00 50 1016.3
20260901040111 86 137 10.0 15.0 0.00 0.00 0.00 50 1016.3
20260901034549 86 132 8.0 12.0 0.00 0.00 0.00 49 1016.2
20260901033056 86 136 5.0 9.0 0.00 0.00 0.00 48 1016.2
20260901031552 87 130 4.0 11.0 0.00 0.00 0.00 47 1016.0
20260901030053 87 133 7.0 14.0 0.00 0.00 0.00 46 1015.7
20260901024625 88 99 9.0 13.0 0.00 0.00 0.00 45 1015.5
20260901023100 89 111 9.0 12.0 0.00 0.00 0.00 44 1015.3
20260901021554 89 141 8.0 12.0 0.00 0.00 0.00 43 1014.9
20260901020056 90 144 6.0 11.0 0.00 0.00 0.00 42 1014.7
20260901014554 91 106 6.0 10.0 0.00 0.00 0.00 41 1014.5
20260901013109 91 155 9.0 14.0 0.00 0.00 0.00 40 1014.4
20260901011551 92 142 9.0 16.0 0.00 0.00 0.00 40 1014.4
20260901010054 93 141 11.0 16.0 0.00 0.00 0.00 39 1014.3
20260901004554 94 142 12.0 20.0 0.00 0.00 0.00 38 1014.2
20260901003047 94 138 11.0 17.0 0.00 0.00 0.00 37 1014.2
20260901001553 95 108 10.0 18.0 0.00 0.00 0.00 37 1014.0
20260901000051 95 101 13.0 23.0 0.00 0.00 0.00 37 1013.8
20260831234559 96 99 11.0 19.0 0.00 0.00 0.00 37 1013.7
20260831233055 97 109 13.0 21.0 0.00 0.00 0.00 35 1013.7
20260831231549 96 101 6.0 17.0 0.00 0.00 0.00 35 1013.9
20260831230057 97 112 11.0 19.0 0.00 0.00 0.00 34 1014.1
20260831224557 97 109 12.0 19.0 0.00 0.00 0.00 35 1013.9
20260831223054 97 82 9.0 15.0 0.00 0.00 0.00 34 1014.0
20260831221610 97 144 2.0 14.0 0.00 0.00 0.00 34 1014.1
20260831220049 97 142 9.0 25.0 0.00 0.00 0.00 33 1014.4
20260831214554 97 197 6.0 14.0 0.00 0.00 0.00 37 1014.5